Time,TemperatureF,DewpointF,PressureIn,WindDirection,WindDirectionDegrees,WindSpeedMPH,WindSpeedGustMPH,Humidity,HourlyPrecipIn,Conditions,Clouds,dailyrainin,SoftwareType,DateUTC
2013-04-11 00:00:00,44.1,44.0,29.88,WNW,292,0.0,0.0,99,0.00,,,0.00,Rainwise IP-100,2013-04-11 04:00:00,
2013-04-11 00:01:00,44.0,44.0,29.89,WNW,292,0.0,0.0,99,0.00,,,0.00,Rainwise IP-100,2013-04-11 04:01:00,
2013-04-11 00:06:00,44.0,44.0,29.89,WNW,292,0.0,0.0,99,0.06,,,0.01,Rainwise IP-100,2013-04-11 04:06:00,
2013-04-11 00:11:00,44.0,44.0,29.89,WNW,292,0.0,0.0,99,0.12,,,0.02,Rainwise IP-100,2013-04-11 04:11:00,
2013-04-11 00:16:00,44.1,44.0,29.88,WNW,292,0.0,0.0,99,0.12,,,0.03,Rainwise IP-100,2013-04-11 04:16:00,
2013-04-11 00:21:00,44.2,44.0,29.88,South,180,0.0,1.9,99,0.12,,,0.04,Rainwise IP-100,2013-04-11 04:21:00,
2013-04-11 00:26:00,44.1,44.0,29.87,SSE,157,4.9,4.9,99,0.06,,,0.04,Rainwise IP-100,2013-04-11 04:26:00,
2013-04-11 00:31:00,44.1,44.0,29.87,SSE,157,3.5,4.9,99,0.00,,,0.04,Rainwise IP-100,2013-04-11 04:31:00,
2013-04-11 00:36:00,44.0,44.0,29.87,SE,135,2.3,4.0,99,0.00,,,0.04,Rainwise IP-100,2013-04-11 04:36:00,
2013-04-11 00:41:00,44.0,44.0,29.87,SSE,157,2.8,4.0,99,0.00,,,0.04,Rainwise IP-100,2013-04-11 04:41:00,
2013-04-11 00:46:00,44.0,44.0,29.85,ESE,112,0.0,3.5,99,0.06,,,0.05,Rainwise IP-100,2013-04-11 04:46:00,
2013-04-11 00:51:00,44.0,44.0,29.86,SE,135,1.9,2.8,99,0.06,,,0.05,Rainwise IP-100,2013-04-11 04:51:00,
2013-04-11 00:56:00,43.9,44.0,29.85,SSE,157,0.0,5.4,99,0.00,,,0.05,Rainwise IP-100,2013-04-11 04:56:00,
2013-04-11 01:01:00,43.9,44.0,29.85,SSE,157,1.6,4.4,99,0.00,,,0.05,Rainwise IP-100,2013-04-11 05:01:00,
2013-04-11 01:06:00,43.8,44.0,29.84,SSE,157,2.8,5.4,99,0.00,,,0.05,Rainwise IP-100,2013-04-11 05:06:00,
2013-04-11 01:11:00,43.7,44.0,29.84,SSE,157,2.6,5.6,99,0.00,,,0.05,Rainwise IP-100,2013-04-11 05:11:00,
2013-04-11 01:16:00,43.7,44.0,29.85,SE,135,1.4,6.1,99,0.00,,,0.05,Rainwise IP-100,2013-04-11 05:16:00,
2013-04-11 01:21:00,43.6,44.0,29.86,SE,135,0.0,3.0,99,0.00,,,0.05,Rainwise IP-100,2013-04-11 05:21:00,
2013-04-11 01:26:00,43.6,44.0,29.87,NNE,22,0.0,1.6,99,0.06,,,0.06,Rainwise IP-100,2013-04-11 05:26:00,
2013-04-11 01:31:00,43.7,44.0,29.85,NNE,22,0.0,0.0,100,0.06,,,0.06,Rainwise IP-100,2013-04-11 05:31:00,
2013-04-11 01:36:00,43.7,44.0,29.84,SSE,157,2.1,3.0,100,0.00,,,0.06,Rainwise IP-100,2013-04-11 05:36:00,
2013-04-11 01:41:00,43.7,44.0,29.83,SSE,157,0.0,3.0,100,0.00,,,0.06,Rainwise IP-100,2013-04-11 05:41:00,
2013-04-11 01:46:00,43.7,44.0,29.83,SSE,157,0.0,2.1,100,0.00,,,0.06,Rainwise IP-100,2013-04-11 05:46:00,
2013-04-11 01:51:00,43.7,44.0,29.83,SSE,157,0.0,2.1,100,0.00,,,0.06,Rainwise IP-100,2013-04-11 05:51:00,
2013-04-11 01:56:00,43.7,44.0,29.83,SSE,157,0.0,0.0,100,0.00,,,0.06,Rainwise IP-100,2013-04-11 05:56:00,
2013-04-11 02:01:00,43.7,44.0,29.81,ENE,67,2.3,2.3,100,0.00,,,0.06,Rainwise IP-100,2013-04-11 06:01:00,
2013-04-11 02:07:00,43.7,44.0,29.81,ENE,67,0.0,2.6,100,0.00,,,0.06,Rainwise IP-100,2013-04-11 06:07:00,
2013-04-11 02:12:00,43.7,44.0,29.82,ENE,67,0.0,1.2,100,0.00,,,0.06,Rainwise IP-100,2013-04-11 06:12:00,
2013-04-11 02:17:00,43.7,44.0,29.81,ENE,67,0.0,1.2,100,0.00,,,0.06,Rainwise IP-100,2013-04-11 06:17:00,
2013-04-11 02:22:00,43.7,44.0,29.81,ENE,67,0.0,0.0,100,0.00,,,0.06,Rainwise IP-100,2013-04-11 06:22:00,
2013-04-11 02:27:00,43.8,44.0,29.81,ENE,67,0.0,0.0,100,0.00,,,0.06,Rainwise IP-100,2013-04-11 06:27:00,
2013-04-11 02:32:00,43.9,44.0,29.82,North,360,2.6,3.7,100,0.00,,,0.06,Rainwise IP-100,2013-04-11 06:32:00,
2013-04-11 02:37:00,43.9,44.0,29.82,NNW,337,0.0,3.0,100,0.00,,,0.06,Rainwise IP-100,2013-04-11 06:37:00,
2013-04-11 02:42:00,43.9,44.0,29.81,NNW,337,0.0,0.0,100,0.00,,,0.06,Rainwise IP-100,2013-04-11 06:42:00,
2013-04-11 02:47:00,43.9,44.0,29.82,NNW,337,1.4,1.6,100,0.00,,,0.06,Rainwise IP-100,2013-04-11 06:47:00,
2013-04-11 02:52:00,44.0,44.0,29.82,NNW,337,1.6,2.3,100,0.00,,,0.06,Rainwise IP-100,2013-04-11 06:52:00,
2013-04-11 02:57:00,44.1,44.0,29.82,NNW,337,0.0,2.6,100,0.00,,,0.06,Rainwise IP-100,2013-04-11 06:57:00,
2013-04-11 03:02:00,44.2,44.0,29.82,NNW,337,0.0,2.6,100,0.00,,,0.06,Rainwise IP-100,2013-04-11 07:02:00,
2013-04-11 03:07:00,44.2,44.0,29.82,NNW,337,0.0,2.1,100,0.00,,,0.06,Rainwise IP-100,2013-04-11 07:07:00,
2013-04-11 03:12:00,44.2,44.0,29.81,NNW,337,0.0,1.9,100,0.00,,,0.06,Rainwise IP-100,2013-04-11 07:12:00,
2013-04-11 03:17:00,44.2,44.0,29.82,NNW,337,0.0,1.4,100,0.00,,,0.06,Rainwise IP-100,2013-04-11 07:17:00,
2013-04-11 03:22:00,44.2,44.0,29.82,NNW,337,0.0,1.9,100,0.00,,,0.06,Rainwise IP-100,2013-04-11 07:22:00,
2013-04-11 03:27:00,44.3,44.0,29.82,NNW,337,0.0,1.4,100,0.00,,,0.06,Rainwise IP-100,2013-04-11 07:27:00,
2013-04-11 03:32:00,44.3,44.0,29.82,NNW,337,1.2,1.6,100,0.00,,,0.06,Rainwise IP-100,2013-04-11 07:32:00,
2013-04-11 03:37:00,44.4,44.0,29.82,NNW,337,0.0,1.4,100,0.00,,,0.06,Rainwise IP-100,2013-04-11 07:37:00,
2013-04-11 03:42:00,44.4,44.0,29.82,NNW,337,0.0,2.6,100,0.00,,,0.06,Rainwise IP-100,2013-04-11 07:42:00,
2013-04-11 03:47:00,44.4,44.0,29.82,NNW,337,0.0,2.1,100,0.00,,,0.06,Rainwise IP-100,2013-04-11 07:47:00,
2013-04-11 03:52:00,44.5,45.0,29.81,NNW,337,0.0,1.6,100,0.00,,,0.06,Rainwise IP-100,2013-04-11 07:52:00,
2013-04-11 03:57:00,44.5,45.0,29.82,NNW,337,0.0,1.4,100,0.00,,,0.06,Rainwise IP-100,2013-04-11 07:57:00,
2013-04-11 04:02:00,44.5,45.0,29.81,NNW,337,0.0,0.0,100,0.00,,,0.06,Rainwise IP-100,2013-04-11 08:02:00,
2013-04-11 04:07:00,44.6,45.0,29.80,NNW,337,1.9,2.3,100,0.00,,,0.06,Rainwise IP-100,2013-04-11 08:07:00,
2013-04-11 04:12:00,44.6,45.0,29.81,North,360,0.0,2.8,100,0.00,,,0.06,Rainwise IP-100,2013-04-11 08:12:00,
2013-04-11 04:17:00,44.6,45.0,29.81,North,360,0.0,4.4,100,0.00,,,0.06,Rainwise IP-100,2013-04-11 08:17:00,
2013-04-11 04:22:00,44.6,45.0,29.82,North,360,0.0,1.4,100,0.00,,,0.06,Rainwise IP-100,2013-04-11 08:22:00,
2013-04-11 04:27:00,44.6,45.0,29.81,North,360,1.2,3.7,100,0.00,,,0.06,Rainwise IP-100,2013-04-11 08:27:00,
2013-04-11 04:32:00,44.6,45.0,29.81,North,360,1.6,3.0,100,0.00,,,0.06,Rainwise IP-100,2013-04-11 08:32:00,
2013-04-11 04:37:00,44.7,45.0,29.80,North,360,1.4,2.1,100,0.00,,,0.06,Rainwise IP-100,2013-04-11 08:37:00,
2013-04-11 04:42:00,44.7,45.0,29.80,North,360,1.9,3.3,100,0.00,,,0.06,Rainwise IP-100,2013-04-11 08:42:00,
2013-04-11 04:47:00,44.8,45.0,29.80,North,360,0.0,2.8,100,0.00,,,0.06,Rainwise IP-100,2013-04-11 08:47:00,
2013-04-11 04:52:00,44.9,45.0,29.80,North,360,1.6,2.1,100,0.00,,,0.06,Rainwise IP-100,2013-04-11 08:52:00,
2013-04-11 04:57:00,44.9,45.0,29.80,North,360,1.9,4.4,100,0.00,,,0.06,Rainwise IP-100,2013-04-11 08:57:00,
2013-04-11 05:02:00,45.0,45.0,29.81,NW,315,3.3,5.6,100,0.00,,,0.06,Rainwise IP-100,2013-04-11 09:02:00,
2013-04-11 05:07:00,45.1,45.0,29.82,NNW,337,2.3,6.8,100,0.00,,,0.06,Rainwise IP-100,2013-04-11 09:07:00,
2013-04-11 05:12:00,45.2,45.0,29.82,NNW,337,3.3,6.5,100,0.00,,,0.06,Rainwise IP-100,2013-04-11 09:12:00,
2013-04-11 05:17:00,45.4,45.0,29.82,NW,315,4.2,7.2,100,0.00,,,0.06,Rainwise IP-100,2013-04-11 09:17:00,
2013-04-11 05:22:00,45.4,45.0,29.82,North,360,4.9,9.1,100,0.00,,,0.06,Rainwise IP-100,2013-04-11 09:22:00,
2013-04-11 05:27:00,45.5,46.0,29.82,NNW,337,3.0,5.4,100,0.00,,,0.06,Rainwise IP-100,2013-04-11 09:27:00,
2013-04-11 05:32:00,45.5,46.0,29.82,North,360,5.1,5.1,100,0.00,,,0.06,Rainwise IP-100,2013-04-11 09:32:00,
2013-04-11 05:37:00,45.6,46.0,29.83,WNW,292,6.5,8.6,100,0.00,,,0.06,Rainwise IP-100,2013-04-11 09:37:00,
2013-04-11 05:42:00,45.7,46.0,29.82,NNW,337,0.0,6.8,100,0.00,,,0.06,Rainwise IP-100,2013-04-11 09:42:00,
2013-04-11 05:47:00,45.8,46.0,29.83,NNW,337,4.9,5.6,100,0.00,,,0.06,Rainwise IP-100,2013-04-11 09:47:00,
2013-04-11 05:52:00,45.9,46.0,29.82,NNW,337,0.0,5.6,100,0.00,,,0.06,Rainwise IP-100,2013-04-11 09:52:00,
2013-04-11 05:57:00,46.0,46.0,29.83,NNW,337,1.2,5.1,100,0.00,,,0.06,Rainwise IP-100,2013-04-11 09:57:00,
2013-04-11 06:02:00,46.1,46.0,29.84,North,360,4.2,7.2,100,0.00,,,0.06,Rainwise IP-100,2013-04-11 10:02:00,
2013-04-11 06:07:00,46.2,46.0,29.84,North,360,3.5,6.8,100,0.00,,,0.06,Rainwise IP-100,2013-04-11 10:07:00,
2013-04-11 06:12:00,46.2,46.0,29.84,NE,45,3.0,5.6,100,0.00,,,0.06,Rainwise IP-100,2013-04-11 10:12:00,
2013-04-11 06:17:00,46.3,46.0,29.85,NW,315,4.9,4.9,100,0.00,,,0.06,Rainwise IP-100,2013-04-11 10:17:00,
2013-04-11 06:22:00,46.4,46.0,29.86,North,360,6.1,9.3,100,0.00,,,0.06,Rainwise IP-100,2013-04-11 10:22:00,
2013-04-11 06:27:00,46.4,46.0,29.86,North,360,4.2,8.6,100,0.00,,,0.06,Rainwise IP-100,2013-04-11 10:27:00,
2013-04-11 06:32:00,46.4,46.0,29.87,North,360,3.3,10.7,100,0.00,,,0.06,Rainwise IP-100,2013-04-11 10:32:00,
2013-04-11 06:37:00,46.5,47.0,29.88,North,360,4.0,7.0,100,0.00,,,0.06,Rainwise IP-100,2013-04-11 10:37:00,
2013-04-11 06:42:00,46.5,47.0,29.88,North,360,6.8,7.5,100,0.00,,,0.06,Rainwise IP-100,2013-04-11 10:42:00,
2013-04-11 06:47:00,46.6,47.0,29.88,NNW,337,5.6,10.5,100,0.00,,,0.06,Rainwise IP-100,2013-04-11 10:47:00,
2013-04-11 06:52:00,46.7,47.0,29.89,NNE,22,4.4,10.7,100,0.00,,,0.06,Rainwise IP-100,2013-04-11 10:52:00,
2013-04-11 06:57:00,46.9,47.0,29.89,North,360,5.8,10.5,100,0.00,,,0.06,Rainwise IP-100,2013-04-11 10:57:00,
2013-04-11 07:02:00,46.9,47.0,29.89,NNW,337,6.1,9.3,100,0.00,,,0.06,Rainwise IP-100,2013-04-11 11:02:00,
2013-04-11 07:07:00,46.9,47.0,29.90,WNW,292,6.5,8.6,100,0.00,,,0.06,Rainwise IP-100,2013-04-11 11:07:00,
2013-04-11 07:12:00,47.0,47.0,29.89,NNW,337,5.8,13.3,100,0.00,,,0.06,Rainwise IP-100,2013-04-11 11:12:00,
2013-04-11 07:17:00,47.1,47.0,29.90,North,360,4.7,12.6,100,0.00,,,0.06,Rainwise IP-100,2013-04-11 11:17:00,
2013-04-11 07:22:00,47.1,47.0,29.90,NNW,337,6.8,8.2,100,0.00,,,0.06,Rainwise IP-100,2013-04-11 11:22:00,
2013-04-11 07:27:00,47.2,47.0,29.90,North,360,3.7,9.3,100,0.00,,,0.06,Rainwise IP-100,2013-04-11 11:27:00,
2013-04-11 07:32:00,47.3,47.5,29.90,NNE,22,2.1,9.6,100,0.00,,,0.06,Rainwise IP-100,2013-04-11 11:32:00,
2013-04-11 07:37:00,47.3,47.5,29.90,NNW,337,3.3,7.5,100,0.00,,,0.06,Rainwise IP-100,2013-04-11 11:37:00,
2013-04-11 07:42:00,47.3,47.5,29.91,NNW,337,6.5,9.8,100,0.00,,,0.06,Rainwise IP-100,2013-04-11 11:42:00,
2013-04-11 07:47:00,47.3,47.5,29.91,North,360,7.9,10.3,100,0.00,,,0.06,Rainwise IP-100,2013-04-11 11:47:00,
2013-04-11 07:52:00,47.3,47.5,29.91,NNW,337,7.2,15.4,100,0.00,,,0.06,Rainwise IP-100,2013-04-11 11:52:00,
2013-04-11 07:57:00,47.4,47.5,29.92,NNW,337,4.9,11.0,100,0.00,,,0.06,Rainwise IP-100,2013-04-11 11:57:00,
2013-04-11 08:02:00,47.5,47.5,29.92,North,360,1.4,11.4,100,0.00,,,0.06,Rainwise IP-100,2013-04-11 12:02:00,
2013-04-11 08:07:00,47.6,47.5,29.92,NNW,337,5.4,10.5,99,0.00,,,0.06,Rainwise IP-100,2013-04-11 12:07:00,
2013-04-11 08:12:00,47.7,47.5,29.92,NE,45,2.6,9.3,99,0.00,,,0.06,Rainwise IP-100,2013-04-11 12:12:00,
2013-04-11 08:17:00,47.6,47.5,29.92,North,360,5.4,14.7,99,0.00,,,0.06,Rainwise IP-100,2013-04-11 12:17:00,
2013-04-11 08:22:00,47.6,47.0,29.92,West,270,2.3,14.2,98,0.00,,,0.06,Rainwise IP-100,2013-04-11 12:22:00,
2013-04-11 08:27:00,47.6,47.0,29.93,NNW,337,3.0,10.3,98,0.00,,,0.06,Rainwise IP-100,2013-04-11 12:27:00,
2013-04-11 08:32:00,47.7,47.0,29.92,NNE,22,1.4,9.8,98,0.00,,,0.06,Rainwise IP-100,2013-04-11 12:32:00,
2013-04-11 08:37:00,47.7,47.0,29.92,NNW,337,0.0,5.4,98,0.00,,,0.06,Rainwise IP-100,2013-04-11 12:37:00,
2013-04-11 08:42:00,47.8,47.5,29.92,NNE,22,6.3,7.0,98,0.00,,,0.06,Rainwise IP-100,2013-04-11 12:42:00,
2013-04-11 08:47:00,47.8,47.5,29.92,NNW,337,4.4,9.6,98,0.00,,,0.06,Rainwise IP-100,2013-04-11 12:47:00,
2013-04-11 08:52:00,47.8,47.5,29.92,North,360,11.7,11.7,98,0.00,,,0.06,Rainwise IP-100,2013-04-11 12:52:00,
2013-04-11 08:57:00,47.9,47.5,29.93,North,360,2.3,12.1,97,0.00,,,0.06,Rainwise IP-100,2013-04-11 12:57:00,
2013-04-11 09:02:00,47.9,47.5,29.92,NE,45,4.7,10.5,97,0.00,,,0.06,Rainwise IP-100,2013-04-11 13:02:00,
2013-04-11 09:07:00,47.9,47.5,29.92,NNE,22,2.8,11.2,97,0.00,,,0.06,Rainwise IP-100,2013-04-11 13:07:00,
2013-04-11 09:12:00,48.0,47.5,29.92,ENE,67,2.8,5.4,97,0.00,,,0.06,Rainwise IP-100,2013-04-11 13:12:00,
2013-04-11 09:17:00,48.1,47.5,29.92,North,360,3.5,9.1,97,0.00,,,0.06,Rainwise IP-100,2013-04-11 13:17:00,
2013-04-11 09:22:00,48.2,47.5,29.93,North,360,3.3,7.0,97,0.00,,,0.06,Rainwise IP-100,2013-04-11 13:22:00,
2013-04-11 09:27:00,48.2,47.5,29.94,ENE,67,4.7,14.7,96,0.00,,,0.06,Rainwise IP-100,2013-04-11 13:27:00,
2013-04-11 09:32:00,48.1,47.5,29.95,NNE,22,3.5,8.2,96,0.00,,,0.06,Rainwise IP-100,2013-04-11 13:32:00,
2013-04-11 09:37:00,48.0,47.5,29.96,NE,45,5.1,13.3,96,0.00,,,0.06,Rainwise IP-100,2013-04-11 13:37:00,
2013-04-11 09:42:00,48.1,47.5,29.95,NNW,337,2.3,7.2,96,0.00,,,0.06,Rainwise IP-100,2013-04-11 13:42:00,
2013-04-11 09:47:00,48.1,47.0,29.97,NE,45,1.6,9.1,95,0.00,,,0.06,Rainwise IP-100,2013-04-11 13:47:00,
2013-04-11 09:52:00,48.2,47.0,29.96,NNW,337,6.3,14.7,95,0.00,,,0.06,Rainwise IP-100,2013-04-11 13:52:00,
2013-04-11 09:57:00,48.3,47.0,29.97,NE,45,1.9,9.3,95,0.00,,,0.06,Rainwise IP-100,2013-04-11 13:57:00,
2013-04-11 10:02:00,48.3,47.0,29.96,NNW,337,5.1,5.8,95,0.00,,,0.06,Rainwise IP-100,2013-04-11 14:02:00,
2013-04-11 10:07:00,48.3,47.0,29.96,ENE,67,1.9,7.0,95,0.00,,,0.06,Rainwise IP-100,2013-04-11 14:07:00,
2013-04-11 10:12:00,48.4,47.0,29.96,NNE,22,2.3,7.0,94,0.00,,,0.06,Rainwise IP-100,2013-04-11 14:12:00,
2013-04-11 10:17:00,48.2,47.0,29.96,NNE,22,0.0,9.1,94,0.00,,,0.06,Rainwise IP-100,2013-04-11 14:17:00,
2013-04-11 10:22:00,48.1,47.0,29.96,NNE,22,3.0,5.8,94,0.00,,,0.06,Rainwise IP-100,2013-04-11 14:22:00,
2013-04-11 10:27:00,48.1,47.0,29.96,NNE,22,4.0,7.5,94,0.00,,,0.06,Rainwise IP-100,2013-04-11 14:27:00,
2013-04-11 10:32:00,48.2,47.0,29.96,ENE,67,2.3,6.1,93,0.00,,,0.06,Rainwise IP-100,2013-04-11 14:32:00,
2013-04-11 10:37:00,48.2,47.0,29.96,NNE,22,2.8,7.5,93,0.00,,,0.06,Rainwise IP-100,2013-04-11 14:37:00,
2013-04-11 10:42:00,48.4,47.0,29.97,North,360,5.1,10.0,93,0.00,,,0.06,Rainwise IP-100,2013-04-11 14:42:00,
2013-04-11 10:47:00,48.5,47.0,29.97,East,90,3.5,12.1,92,0.00,,,0.06,Rainwise IP-100,2013-04-11 14:47:00,
2013-04-11 10:52:00,48.4,46.0,29.96,NNW,337,5.4,9.8,92,0.00,,,0.06,Rainwise IP-100,2013-04-11 14:52:00,
2013-04-11 10:57:00,48.5,47.0,29.96,North,360,2.3,7.5,92,0.00,,,0.06,Rainwise IP-100,2013-04-11 14:57:00,
2013-04-11 11:02:00,48.6,47.0,29.97,ENE,67,1.2,6.3,92,0.00,,,0.06,Rainwise IP-100,2013-04-11 15:02:00,
2013-04-11 11:07:00,48.6,47.0,29.97,North,360,6.8,6.8,92,0.00,,,0.06,Rainwise IP-100,2013-04-11 15:07:00,
2013-04-11 11:12:00,48.6,47.0,29.97,NNE,22,5.1,10.3,92,0.00,,,0.06,Rainwise IP-100,2013-04-11 15:12:00,
2013-04-11 11:17:00,48.4,46.0,29.97,NNW,337,4.2,9.8,92,0.00,,,0.06,Rainwise IP-100,2013-04-11 15:17:00,
2013-04-11 11:22:00,48.2,46.0,29.98,NNE,22,7.0,11.2,91,0.00,,,0.06,Rainwise IP-100,2013-04-11 15:22:00,
2013-04-11 11:27:00,48.2,46.0,29.98,NNE,22,4.2,7.7,91,0.00,,,0.06,Rainwise IP-100,2013-04-11 15:27:00,
2013-04-11 11:32:00,48.0,46.0,29.98,NE,45,2.8,8.9,92,0.00,,,0.06,Rainwise IP-100,2013-04-11 15:32:00,
2013-04-11 11:37:00,47.8,46.0,29.98,North,360,4.0,9.1,92,0.00,,,0.06,Rainwise IP-100,2013-04-11 15:37:00,
2013-04-11 11:42:00,47.9,46.0,29.99,NE,45,4.9,9.3,91,0.00,,,0.06,Rainwise IP-100,2013-04-11 15:42:00,
2013-04-11 11:47:00,47.8,46.0,29.99,NNE,22,3.5,7.5,91,0.00,,,0.06,Rainwise IP-100,2013-04-11 15:47:00,
2013-04-11 11:52:00,47.9,46.0,29.98,NE,45,3.5,10.0,90,0.00,,,0.06,Rainwise IP-100,2013-04-11 15:52:00,
2013-04-11 11:57:00,48.2,46.0,29.99,NNE,22,6.1,9.8,90,0.00,,,0.06,Rainwise IP-100,2013-04-11 15:57:00,
2013-04-11 12:02:00,48.2,45.0,29.99,ENE,67,2.3,7.9,89,0.00,,,0.06,Rainwise IP-100,2013-04-11 16:02:00,
2013-04-11 12:07:00,48.2,45.0,29.98,East,90,3.3,8.4,88,0.00,,,0.06,Rainwise IP-100,2013-04-11 16:07:00,
2013-04-11 12:13:00,48.4,45.0,29.99,NE,45,2.6,12.6,87,0.00,,,0.06,Rainwise IP-100,2013-04-11 16:13:00,
2013-04-11 12:18:00,48.6,45.0,29.99,ENE,67,4.2,8.6,87,0.00,,,0.06,Rainwise IP-100,2013-04-11 16:18:00,
2013-04-11 12:23:00,49.0,45.0,29.99,ENE,67,1.6,6.8,86,0.00,,,0.06,Rainwise IP-100,2013-04-11 16:23:00,
2013-04-11 12:28:00,49.2,45.0,29.99,East,90,5.6,10.3,85,0.00,,,0.06,Rainwise IP-100,2013-04-11 16:28:00,
2013-04-11 12:33:00,49.2,44.0,29.98,NE,45,1.6,8.4,84,0.00,,,0.06,Rainwise IP-100,2013-04-11 16:33:00,
2013-04-11 12:38:00,49.2,44.0,29.98,NNE,22,3.7,9.3,84,0.00,,,0.06,Rainwise IP-100,2013-04-11 16:38:00,
2013-04-11 12:43:00,49.2,44.0,29.99,ENE,67,4.0,11.4,83,0.00,,,0.06,Rainwise IP-100,2013-04-11 16:43:00,
2013-04-11 12:48:00,49.2,44.0,29.99,NNE,22,7.0,10.7,83,0.00,,,0.06,Rainwise IP-100,2013-04-11 16:48:00,
2013-04-11 12:53:00,49.3,44.0,29.99,NE,45,4.4,11.2,83,0.00,,,0.06,Rainwise IP-100,2013-04-11 16:53:00,
2013-04-11 12:58:00,49.2,44.0,29.99,NNW,337,8.4,12.4,83,0.00,,,0.06,Rainwise IP-100,2013-04-11 16:58:00,
2013-04-11 13:03:00,48.9,44.0,29.99,NNE,22,4.2,12.6,83,0.00,,,0.06,Rainwise IP-100,2013-04-11 17:03:00,
2013-04-11 13:08:00,48.5,44.0,29.99,NNE,22,3.0,11.9,83,0.00,,,0.06,Rainwise IP-100,2013-04-11 17:08:00,
2013-04-11 13:13:00,48.3,44.0,29.99,East,90,1.9,8.4,84,0.00,,,0.06,Rainwise IP-100,2013-04-11 17:13:00,
2013-04-11 13:18:00,48.2,44.0,30.00,NE,45,4.9,7.9,84,0.00,,,0.06,Rainwise IP-100,2013-04-11 17:18:00,
2013-04-11 13:23:00,47.6,43.0,30.00,NE,45,2.1,7.0,84,0.00,,,0.06,Rainwise IP-100,2013-04-11 17:23:00,
2013-04-11 13:28:00,47.7,43.0,30.00,North,360,4.4,7.5,85,0.00,,,0.06,Rainwise IP-100,2013-04-11 17:28:00,
2013-04-11 13:33:00,48.2,44.0,30.00,NE,45,4.9,8.9,85,0.00,,,0.06,Rainwise IP-100,2013-04-11 17:33:00,
2013-04-11 13:38:00,48.2,44.0,30.00,NE,45,3.5,9.6,84,0.00,,,0.06,Rainwise IP-100,2013-04-11 17:38:00,
2013-04-11 13:43:00,47.9,44.0,30.00,NE,45,6.8,7.9,84,0.00,,,0.06,Rainwise IP-100,2013-04-11 17:43:00,
2013-04-11 13:48:00,47.2,42.0,30.01,ENE,67,4.0,7.5,85,0.00,,,0.06,Rainwise IP-100,2013-04-11 17:48:00,
2013-04-11 13:53:00,46.7,43.0,30.01,ENE,67,5.8,8.6,86,0.00,,,0.06,Rainwise IP-100,2013-04-11 17:53:00,
2013-04-11 13:58:00,46.6,43.0,30.02,ENE,67,3.5,9.6,86,0.00,,,0.06,Rainwise IP-100,2013-04-11 17:58:00,
2013-04-11 14:03:00,46.7,43.0,30.02,WNW,292,4.7,6.5,86,0.00,,,0.06,Rainwise IP-100,2013-04-11 18:03:00,
2013-04-11 14:08:00,46.9,43.0,30.01,NE,45,2.1,6.5,86,0.00,,,0.06,Rainwise IP-100,2013-04-11 18:08:00,
2013-04-11 14:13:00,47.1,43.0,30.02,NNE,22,1.4,7.5,86,0.00,,,0.06,Rainwise IP-100,2013-04-11 18:13:00,
2013-04-11 14:18:00,47.4,43.0,30.02,ENE,67,3.3,4.9,86,0.00,,,0.06,Rainwise IP-100,2013-04-11 18:18:00,
2013-04-11 14:23:00,47.4,43.0,30.02,ENE,67,0.0,6.8,85,0.00,,,0.06,Rainwise IP-100,2013-04-11 18:23:00,
2013-04-11 14:28:00,47.5,43.0,30.01,NNW,337,3.3,5.8,85,0.00,,,0.06,Rainwise IP-100,2013-04-11 18:28:00,
2013-04-11 14:33:00,48.3,44.0,30.01,East,90,5.6,10.5,84,0.00,,,0.06,Rainwise IP-100,2013-04-11 18:33:00,
2013-04-11 14:38:00,49.1,44.0,30.01,NE,45,3.7,7.0,82,0.00,,,0.06,Rainwise IP-100,2013-04-11 18:38:00,
2013-04-11 14:43:00,49.3,43.0,30.01,NE,45,2.3,6.1,81,0.00,,,0.06,Rainwise IP-100,2013-04-11 18:43:00,
2013-04-11 14:48:00,49.7,44.0,30.01,East,90,4.2,7.5,80,0.00,,,0.06,Rainwise IP-100,2013-04-11 18:48:00,
2013-04-11 14:53:00,49.8,43.0,30.00,East,90,4.0,6.3,79,0.00,,,0.06,Rainwise IP-100,2013-04-11 18:53:00,
2013-04-11 14:58:00,49.4,42.0,30.01,East,90,3.5,5.6,78,0.00,,,0.06,Rainwise IP-100,2013-04-11 18:58:00,
2013-04-11 15:03:00,49.1,42.0,30.01,ESE,112,4.7,5.6,78,0.00,,,0.06,Rainwise IP-100,2013-04-11 19:03:00,
2013-04-11 15:08:00,48.9,42.0,30.01,ENE,67,7.0,7.0,78,0.00,,,0.06,Rainwise IP-100,2013-04-11 19:08:00,
2013-04-11 15:13:00,48.7,42.0,30.01,NNE,22,2.6,7.2,77,0.00,,,0.06,Rainwise IP-100,2013-04-11 19:13:00,
2013-04-11 15:18:00,48.9,42.0,30.01,NE,45,0.0,6.1,77,0.00,,,0.06,Rainwise IP-100,2013-04-11 19:18:00,
2013-04-11 15:23:00,49.0,41.0,30.02,NNE,22,2.8,4.4,75,0.00,,,0.06,Rainwise IP-100,2013-04-11 19:23:00,
2013-04-11 15:28:00,49.2,41.0,30.00,NE,45,0.0,3.7,74,0.00,,,0.06,Rainwise IP-100,2013-04-11 19:28:00,
2013-04-11 15:33:00,49.8,41.0,30.01,SE,135,0.0,4.2,73,0.00,,,0.06,Rainwise IP-100,2013-04-11 19:33:00,
2013-04-11 15:38:00,50.1,41.0,30.00,SE,135,3.0,5.1,71,0.00,,,0.06,Rainwise IP-100,2013-04-11 19:38:00,
2013-04-11 15:43:00,50.1,40.0,30.00,East,90,1.4,7.7,69,0.00,,,0.06,Rainwise IP-100,2013-04-11 19:43:00,
2013-04-11 15:48:00,50.3,40.0,30.00,East,90,3.5,6.3,68,0.00,,,0.06,Rainwise IP-100,2013-04-11 19:48:00,
2013-04-11 15:53:00,50.3,39.0,30.00,ENE,67,5.1,7.5,66,0.00,,,0.06,Rainwise IP-100,2013-04-11 19:53:00,
2013-04-11 15:58:00,50.2,39.0,30.00,East,90,2.3,6.8,66,0.00,,,0.06,Rainwise IP-100,2013-04-11 19:58:00,
2013-04-11 16:03:00,50.3,40.0,30.00,ENE,67,4.2,5.6,67,0.00,,,0.06,Rainwise IP-100,2013-04-11 20:03:00,
2013-04-11 16:08:00,49.7,39.0,30.01,NNW,337,0.0,8.2,68,0.00,,,0.06,Rainwise IP-100,2013-04-11 20:08:00,
2013-04-11 16:13:00,49.1,39.0,30.01,ENE,67,3.3,7.5,69,0.00,,,0.06,Rainwise IP-100,2013-04-11 20:13:00,
2013-04-11 16:18:00,49.2,39.0,30.01,ENE,67,3.5,8.4,69,0.00,,,0.06,Rainwise IP-100,2013-04-11 20:18:00,
2013-04-11 16:23:00,49.0,40.0,30.01,East,90,0.0,6.8,70,0.00,,,0.06,Rainwise IP-100,2013-04-11 20:23:00,
2013-04-11 16:28:00,48.8,40.0,30.01,ENE,67,3.7,7.9,70,0.00,,,0.06,Rainwise IP-100,2013-04-11 20:28:00,
2013-04-11 16:33:00,48.7,39.0,30.01,North,360,3.5,7.7,69,0.00,,,0.06,Rainwise IP-100,2013-04-11 20:33:00,
2013-04-11 16:38:00,48.6,39.0,30.01,East,90,3.5,8.9,69,0.00,,,0.06,Rainwise IP-100,2013-04-11 20:38:00,
2013-04-11 16:43:00,48.6,39.0,30.01,East,90,2.6,7.7,69,0.00,,,0.06,Rainwise IP-100,2013-04-11 20:43:00,
2013-04-11 16:48:00,48.4,38.0,30.02,SSE,157,3.7,9.6,69,0.00,,,0.06,Rainwise IP-100,2013-04-11 20:48:00,
2013-04-11 16:53:00,48.2,38.0,30.02,East,90,3.5,8.4,68,0.00,,,0.06,Rainwise IP-100,2013-04-11 20:53:00,
2013-04-11 16:58:00,48.2,38.0,30.02,NNE,22,1.2,5.4,68,0.00,,,0.06,Rainwise IP-100,2013-04-11 20:58:00,
2013-04-11 17:03:00,48.4,38.0,30.02,NNE,22,2.1,4.2,68,0.00,,,0.06,Rainwise IP-100,2013-04-11 21:03:00,
2013-04-11 17:08:00,48.8,38.0,30.02,ESE,112,2.1,6.5,67,0.00,,,0.06,Rainwise IP-100,2013-04-11 21:08:00,
2013-04-11 17:13:00,48.8,38.0,30.02,East,90,4.0,9.8,67,0.00,,,0.06,Rainwise IP-100,2013-04-11 21:13:00,
2013-04-11 17:18:00,48.6,38.0,30.02,East,90,3.7,7.2,67,0.00,,,0.06,Rainwise IP-100,2013-04-11 21:18:00,
2013-04-11 17:23:00,48.6,38.0,30.02,ENE,67,3.3,6.5,67,0.00,,,0.06,Rainwise IP-100,2013-04-11 21:23:00,
2013-04-11 17:28:00,48.6,38.0,30.02,NE,45,4.9,5.6,67,0.00,,,0.06,Rainwise IP-100,2013-04-11 21:28:00,
2013-04-11 17:33:00,48.4,38.0,30.02,South,180,1.6,8.4,67,0.00,,,0.06,Rainwise IP-100,2013-04-11 21:33:00,
2013-04-11 17:38:00,48.4,38.0,30.03,ENE,67,3.3,4.0,67,0.00,,,0.06,Rainwise IP-100,2013-04-11 21:38:00,
2013-04-11 17:43:00,48.3,38.0,30.03,ENE,67,2.8,8.6,67,0.00,,,0.06,Rainwise IP-100,2013-04-11 21:43:00,
2013-04-11 17:48:00,48.1,38.0,30.03,ENE,67,0.0,6.1,67,0.00,,,0.06,Rainwise IP-100,2013-04-11 21:48:00,
2013-04-11 17:53:00,48.2,38.0,30.03,ESE,112,2.6,4.2,67,0.00,,,0.06,Rainwise IP-100,2013-04-11 21:53:00,
2013-04-11 17:58:00,48.2,38.0,30.03,ESE,112,4.9,5.1,67,0.00,,,0.06,Rainwise IP-100,2013-04-11 21:58:00,
2013-04-11 18:03:00,48.0,37.0,30.03,ENE,67,2.1,6.3,66,0.00,,,0.06,Rainwise IP-100,2013-04-11 22:03:00,
2013-04-11 18:08:00,47.8,37.0,30.03,ENE,67,4.2,5.6,66,0.00,,,0.06,Rainwise IP-100,2013-04-11 22:08:00,
2013-04-11 18:13:00,47.6,37.0,30.03,SSE,157,0.0,10.0,67,0.00,,,0.06,Rainwise IP-100,2013-04-11 22:13:00,
2013-04-11 18:18:00,47.5,37.0,30.03,ENE,67,3.7,5.4,68,0.00,,,0.06,Rainwise IP-100,2013-04-11 22:18:00,
2013-04-11 18:23:00,47.2,37.0,30.04,ENE,67,4.2,6.1,70,0.00,,,0.06,Rainwise IP-100,2013-04-11 22:23:00,
2013-04-11 18:28:00,46.9,38.0,30.03,East,90,3.5,6.1,72,0.00,,,0.06,Rainwise IP-100,2013-04-11 22:28:00,
2013-04-11 18:33:00,46.6,38.0,30.03,NNE,22,1.6,6.8,73,0.00,,,0.06,Rainwise IP-100,2013-04-11 22:33:00,
2013-04-11 18:38:00,46.4,38.0,30.04,East,90,6.3,6.3,75,0.00,,,0.06,Rainwise IP-100,2013-04-11 22:38:00,
2013-04-11 18:43:00,46.3,38.0,30.03,ENE,67,3.3,7.7,75,0.00,,,0.06,Rainwise IP-100,2013-04-11 22:43:00,
2013-04-11 18:48:00,46.1,38.0,30.03,NE,45,2.6,6.5,75,0.00,,,0.06,Rainwise IP-100,2013-04-11 22:48:00,
2013-04-11 18:53:00,46.0,39.0,30.03,ENE,67,4.0,6.3,76,0.00,,,0.06,Rainwise IP-100,2013-04-11 22:53:00,
2013-04-11 18:58:00,46.0,39.0,30.03,ENE,67,0.0,5.6,76,0.00,,,0.06,Rainwise IP-100,2013-04-11 22:58:00,
2013-04-11 19:03:00,45.9,39.0,30.05,ENE,67,2.8,3.3,76,0.00,,,0.06,Rainwise IP-100,2013-04-11 23:03:00,
2013-04-11 19:08:00,45.8,39.0,30.04,ENE,67,2.1,5.4,76,0.00,,,0.06,Rainwise IP-100,2013-04-11 23:08:00,
2013-04-11 19:13:00,45.6,39.0,30.03,SSE,157,4.4,7.7,76,0.00,,,0.06,Rainwise IP-100,2013-04-11 23:13:00,
2013-04-11 19:18:00,45.4,38.0,30.05,East,90,2.3,4.9,77,0.00,,,0.06,Rainwise IP-100,2013-04-11 23:18:00,
2013-04-11 19:23:00,45.3,38.0,30.05,ENE,67,2.3,7.2,78,0.00,,,0.06,Rainwise IP-100,2013-04-11 23:23:00,
2013-04-11 19:28:00,45.1,39.0,30.06,ESE,112,1.6,7.5,79,0.00,,,0.06,Rainwise IP-100,2013-04-11 23:28:00,
2013-04-11 19:33:00,44.9,39.0,30.05,NE,45,0.0,5.4,80,0.00,,,0.06,Rainwise IP-100,2013-04-11 23:33:00,
2013-04-11 19:38:00,44.8,39.0,30.06,East,90,4.4,7.0,81,0.00,,,0.06,Rainwise IP-100,2013-04-11 23:38:00,
2013-04-11 19:43:00,44.6,40.0,30.06,East,90,1.6,6.8,82,0.00,,,0.06,Rainwise IP-100,2013-04-11 23:43:00,
2013-04-11 19:48:00,44.5,40.0,30.06,SSE,157,0.0,5.4,83,0.00,,,0.06,Rainwise IP-100,2013-04-11 23:48:00,
2013-04-11 19:53:00,44.5,40.0,30.06,ENE,67,4.0,6.3,83,0.00,,,0.06,Rainwise IP-100,2013-04-11 23:53:00,
2013-04-11 19:58:00,44.5,40.0,30.07,ESE,112,4.4,11.7,83,0.00,,,0.06,Rainwise IP-100,2013-04-11 23:58:00,
2013-04-11 20:03:00,44.5,40.0,30.06,East,90,0.0,5.4,83,0.00,,,0.06,Rainwise IP-100,2013-04-12 00:03:00,
2013-04-11 20:08:00,44.5,40.0,30.06,NE,45,2.1,6.8,83,0.00,,,0.06,Rainwise IP-100,2013-04-12 00:08:00,
2013-04-11 20:13:00,44.5,40.0,30.06,ESE,112,4.7,4.7,82,0.00,,,0.06,Rainwise IP-100,2013-04-12 00:13:00,
2013-04-11 20:18:00,44.4,39.0,30.07,ESE,112,2.1,5.8,82,0.00,,,0.06,Rainwise IP-100,2013-04-12 00:18:00,
2013-04-11 20:23:00,44.4,38.0,30.06,ENE,67,3.0,8.2,81,0.00,,,0.06,Rainwise IP-100,2013-04-12 00:23:00,
2013-04-11 20:28:00,44.4,38.0,30.06,ENE,67,2.3,6.1,81,0.00,,,0.06,Rainwise IP-100,2013-04-12 00:28:00,
2013-04-11 20:33:00,44.4,38.0,30.07,East,90,2.8,6.3,80,0.00,,,0.06,Rainwise IP-100,2013-04-12 00:33:00,
2013-04-11 20:38:00,44.4,38.0,30.07,NE,45,4.0,5.1,79,0.00,,,0.06,Rainwise IP-100,2013-04-12 00:38:00,
2013-04-11 20:43:00,44.4,38.0,30.08,East,90,2.3,6.3,78,0.00,,,0.06,Rainwise IP-100,2013-04-12 00:43:00,
2013-04-11 20:49:00,44.4,38.0,30.08,East,90,0.0,6.3,78,0.00,,,0.06,Rainwise IP-100,2013-04-12 00:49:00,
2013-04-11 20:54:00,44.3,38.0,30.08,North,360,0.0,4.4,79,0.00,,,0.06,Rainwise IP-100,2013-04-12 00:54:00,
2013-04-11 20:59:00,44.2,38.0,30.08,East,90,2.6,6.3,79,0.00,,,0.06,Rainwise IP-100,2013-04-12 00:59:00,
2013-04-11 21:04:00,44.2,38.0,30.08,ESE,112,1.4,7.5,78,0.00,,,0.06,Rainwise IP-100,2013-04-12 01:04:00,
2013-04-11 21:09:00,44.2,37.0,30.08,ENE,67,3.0,6.5,77,0.00,,,0.06,Rainwise IP-100,2013-04-12 01:09:00,
2013-04-11 21:14:00,44.1,37.0,30.08,ENE,67,4.4,6.5,77,0.00,,,0.06,Rainwise IP-100,2013-04-12 01:14:00,
2013-04-11 21:19:00,44.1,37.0,30.08,ESE,112,0.0,7.0,77,0.00,,,0.06,Rainwise IP-100,2013-04-12 01:19:00,
2013-04-11 21:24:00,44.1,37.0,30.09,ENE,67,4.0,5.8,77,0.00,,,0.06,Rainwise IP-100,2013-04-12 01:24:00,
2013-04-11 21:29:00,44.1,37.0,30.08,ENE,67,2.6,6.8,77,0.00,,,0.06,Rainwise IP-100,2013-04-12 01:29:00,
2013-04-11 21:34:00,44.1,37.0,30.09,East,90,2.1,6.8,77,0.00,,,0.06,Rainwise IP-100,2013-04-12 01:34:00,
2013-04-11 21:39:00,44.0,37.0,30.09,ESE,112,3.3,6.8,77,0.00,,,0.06,Rainwise IP-100,2013-04-12 01:39:00,
2013-04-11 21:44:00,44.0,37.0,30.10,East,90,3.5,4.0,77,0.00,,,0.06,Rainwise IP-100,2013-04-12 01:44:00,
2013-04-11 21:49:00,44.0,37.0,30.10,ENE,67,1.6,4.4,77,0.00,,,0.06,Rainwise IP-100,2013-04-12 01:49:00,
2013-04-11 21:54:00,44.0,37.0,30.10,NE,45,2.8,4.7,77,0.00,,,0.06,Rainwise IP-100,2013-04-12 01:54:00,
2013-04-11 21:59:00,44.0,37.0,30.10,ENE,67,1.4,4.2,77,0.00,,,0.06,Rainwise IP-100,2013-04-12 01:59:00,
2013-04-11 22:04:00,43.9,37.0,30.09,ENE,67,1.6,5.1,77,0.00,,,0.06,Rainwise IP-100,2013-04-12 02:04:00,
2013-04-11 22:09:00,43.9,38.0,30.09,East,90,4.0,4.0,78,0.00,,,0.06,Rainwise IP-100,2013-04-12 02:09:00,
2013-04-11 22:14:00,43.8,38.0,30.10,NNE,22,2.1,4.2,78,0.00,,,0.06,Rainwise IP-100,2013-04-12 02:14:00,
2013-04-11 22:19:00,43.8,38.0,30.10,ENE,67,1.9,4.4,78,0.00,,,0.06,Rainwise IP-100,2013-04-12 02:19:00,
2013-04-11 22:24:00,43.8,38.0,30.10,ENE,67,1.2,2.6,78,0.00,,,0.06,Rainwise IP-100,2013-04-12 02:24:00,
2013-04-11 22:29:00,43.8,38.0,30.10,ENE,67,2.1,3.0,79,0.00,,,0.06,Rainwise IP-100,2013-04-12 02:29:00,
2013-04-11 22:34:00,43.8,38.0,30.11,ENE,67,2.8,3.3,79,0.00,,,0.06,Rainwise IP-100,2013-04-12 02:34:00,
2013-04-11 22:39:00,43.7,38.0,30.10,East,90,1.4,4.2,79,0.00,,,0.06,Rainwise IP-100,2013-04-12 02:39:00,
2013-04-11 22:44:00,43.7,38.0,30.11,ENE,67,1.2,3.7,79,0.00,,,0.06,Rainwise IP-100,2013-04-12 02:44:00,
2013-04-11 22:49:00,43.7,38.0,30.10,East,90,1.6,3.0,79,0.00,,,0.06,Rainwise IP-100,2013-04-12 02:49:00,
2013-04-11 22:54:00,43.7,38.0,30.10,ENE,67,2.1,4.0,79,0.00,,,0.06,Rainwise IP-100,2013-04-12 02:54:00,
2013-04-11 22:59:00,43.7,38.0,30.10,East,90,1.9,3.7,79,0.00,,,0.06,Rainwise IP-100,2013-04-12 02:59:00,
2013-04-11 23:04:00,43.6,38.0,30.10,WNW,292,1.4,4.7,79,0.00,,,0.06,Rainwise IP-100,2013-04-12 03:04:00,
2013-04-11 23:09:00,43.6,38.0,30.11,NE,45,1.4,4.4,78,0.00,,,0.06,Rainwise IP-100,2013-04-12 03:09:00,
2013-04-11 23:14:00,43.7,38.0,30.10,East,90,2.1,2.6,78,0.00,,,0.06,Rainwise IP-100,2013-04-12 03:14:00,
2013-04-11 23:19:00,43.7,38.0,30.10,ENE,67,2.1,4.7,78,0.00,,,0.06,Rainwise IP-100,2013-04-12 03:19:00,
2013-04-11 23:24:00,43.6,38.0,30.10,ENE,67,2.8,4.7,78,0.00,,,0.06,Rainwise IP-100,2013-04-12 03:24:00,
2013-04-11 23:29:00,43.6,38.0,30.11,NE,45,1.2,4.2,79,0.00,,,0.06,Rainwise IP-100,2013-04-12 03:29:00,
2013-04-11 23:34:00,43.6,38.0,30.11,NE,45,2.1,2.8,79,0.00,,,0.06,Rainwise IP-100,2013-04-12 03:34:00,
2013-04-11 23:39:00,43.7,38.0,30.10,ENE,67,1.6,4.4,79,0.00,,,0.06,Rainwise IP-100,2013-04-12 03:39:00,
2013-04-11 23:44:00,43.6,38.0,30.10,ESE,112,2.8,3.3,79,0.00,,,0.06,Rainwise IP-100,2013-04-12 03:44:00,
2013-04-11 23:49:00,43.6,38.0,30.10,ENE,67,3.0,6.1,79,0.00,,,0.06,Rainwise IP-100,2013-04-12 03:49:00,
2013-04-11 23:54:00,43.6,38.0,30.11,NE,45,2.1,4.2,78,0.00,,,0.06,Rainwise IP-100,2013-04-12 03:54:00,
2013-04-11 23:59:00,43.6,38.0,30.11,East,90,1.6,3.5,78,0.00,,,0.06,Rainwise IP-100,2013-04-12 03:59:00,